Regional Weather Roundup
Issued by NWS

Home | Current Version | Previous Version | Graphics & Text | Print | Product List | Glossary On
Versions: 1 2 3 4 5 6 7 8 9 10 11 12 13 14 15 16 17 18 19 20 21 22 23 24 25 26 27 28 29 30 31 32 33 34 35 36 37 38 39 40 41 42 43 44 45 46 47 48 49 50
000
ASUS45 KBOU 062007
RWRCO

WEATHER ROUNDUP FOR COLORADO
NATIONAL WEATHER SERVICE DENVER/BOULDER CO
100 PM MST FRI MAR 06 2015

NOTE: "FAIR" INDICATES FEW OR NO CLOUDS BELOW 12000 FEET WITH NO
SIGNIFICANT WEATHER AND/OR OBSTRUCTIONS TO VISIBILITY.

COZ001>005-013-030-031-062100-
...NORTHWEST COLORADO...

CITY           SKY/WX    TMP DP  RH WIND       PRES   REMARKS
CRAIG            N/A     42  20  41 CALM      30.41F
HAYDEN         SUNNY     37  12  35 NE3       30.40F
MEEKER         SUNNY     45  17  32 S6        30.39F
MOUNT WERNER   NOT AVBL
STEAMBOAT SPGS SUNNY     34  16  47 CALM      30.40F
WALDEN         SUNNY     34  14  44 S13G20    30.36F WCI  25
$$

COZ006>008-011-062100-
...WEST CENTRAL VALLEYS...

CITY           SKY/WX    TMP DP  RH WIND       PRES   REMARKS
GRAND JUNCTION SUNNY     47  17  30 CALM      30.40F
MONTROSE       SUNNY     45  16  31 CALM      30.42F
EAGLE          SUNNY     39  16  38 S5        30.43
RIFLE          SUNNY     46  17  31 VRB5      30.40F
DELTA          SUNNY     48  18  30 W3        30.42F
NUCLA          SUNNY     45  18  33 CALM      30.42F
$$

COZ017>023-064>068-062100-
...SOUTHWEST COLORADO...

CITY           SKY/WX    TMP DP  RH WIND       PRES   REMARKS
DURANGO        SUNNY     41  17  38 NE3       30.37F
CORTEZ         SUNNY     49  20  31 VRB3      30.38F
PAGOSA SPRINGS SUNNY     46   3  17 CALM      30.38F
TELLURIDE      SUNNY     42  -3  14 W12       30.40F
WOLF CREEK PAS SUNNY     30  10  43 S13       30.46F WCI  20
$$

COZ009-010-012-014-032>034-037-058>063-062100-
...CENTRAL COLORADO...

CITY           SKY/WX    TMP DP  RH WIND       PRES   REMARKS
ASPEN          SUNNY     41   6  23 N5        30.38F
BUENA VISTA    SUNNY     42   2  19 CALM      30.33F
COPPER MTN     SUNNY     30  -8  19 W15G26    30.42F WCI  19
BERTHOUD PASS  NOT AVBL
COTTONWOOD PAS SUNNY     41   0  17 SE7       30.36F
GUNNISON       SUNNY     21  10  63 SE5       30.47F WCI  15
KREMMLING      SUNNY     32  14  47 W3        30.43F
LEADVILLE      SUNNY     35   2  24 NW12      30.36F WCI  27
SALIDA         SUNNY     52   6  15 SW10G20   30.39F
SUNLIGHT       SUNNY     32  14  47 CALM        N/A
WILKERSON PASS SUNNY     32   0  25 NW6       30.39F WCI  26
$$

COZ069>075-062100-
...SAN LUIS VALLEY/SANGRE DE CRISTO MOUNTAINS...

CITY           SKY/WX    TMP DP  RH WIND       PRES   REMARKS
ALAMOSA        SUNNY     40  13  33 W5        30.37
LA VETA PASS   SUNNY     37   5  25 S9G18     30.37F
SAGUACHE       SUNNY     39  14  35 SW3       30.39F
$$

COZ035-036-038>040-062100-
...NORTHERN COLORADO FRONT RANGE...

CITY           SKY/WX    TMP DP  RH WIND       PRES   REMARKS
DENVER INTL AP MOSUNNY   46  22  38 SE8       30.25F
DMNS CITY PARK   N/A     53   8  16 E5        30.24F
AURORA         MOSUNNY   45  21  38 SE10      30.25F
FRONT RANGE AP MOSUNNY   48  18  29 SE7       30.27F
ERIE MUNI ARPT SUNNY     47  23  38 N5        30.25F
BOULDER MUN AP SUNNY     46  18  31 N7        30.25S
CENTENNIAL     MOSUNNY   46  11  24 S9        30.25F
BROOMFIELD     MOSUNNY   50  12  22 CALM      30.26
FORT COLLINS   SUNNY     43  19  39 S3        30.28F
LONGMONT       SUNNY     57  12  16 CALM      30.27F
$$

COZ041-046-047-076>085-087-088-062100-
...PIKES PEAK/PALMER DIVIDE AND SOUTHERN FOOTHILLS...

CITY           SKY/WX    TMP DP  RH WIND       PRES   REMARKS
COLO. SPRINGS  SUNNY     49  16  26 S5        30.28F
A. F. ACADEMY  SUNNY     47   6  18 S7        30.27F
ELLICOTT       NOT AVBL
FALCON         SUNNY     48  14  26 CALM      30.30F
FORT CARSON    SUNNY     48  14  26 SE6       30.26F
LIMON          SUNNY     42  23  46 N3        30.29F
MONUMENT HILL  SUNNY     45  12  26 SE7       30.28F
TRINIDAD       SUNNY     53  21  28 E5        30.28F
$$

COZ042>045-048>051-090-091-062100-
...NORTHEAST COLORADO...

CITY           SKY/WX    TMP DP  RH WIND       PRES   REMARKS
GREELEY ARPT   SUNNY     54  19  26 E6        30.24F
AKRON          SUNNY     53  15  22 NW7G21    30.26F
BURLINGTON     SUNNY     55  18  23 W12G22    30.27F
WRAY           SUNNY     60  16  18 NW12G20   30.24F
STERLING       SUNNY     57  18  21 NW12G17   30.22F
HOLYOKE        SUNNY     61  18  18 W10G17    30.23F
FORT MORGAN    SUNNY     55  14  19 W3        30.26F
$$

COZ086-089-092>099-062100-
...SOUTHEAST COLORADO...

CITY           SKY/WX    TMP DP  RH WIND       PRES   REMARKS
PUEBLO         SUNNY     53  20  27 SE3       30.27F
LA JUNTA         N/A     56  21  25 S6        30.27F
LAMAR          SUNNY     57  25  29 SW5       30.26F
SPRINGFIELD      N/A     56  15  20 SW10      30.28F
$$


USA.gov is the U.S. government's official web portal to all federal, state and local government web resources and services.